Twin Bridges, CA

6:18 AM PST on February 12, 2016 (GMT -0800)
Lake Tahoe

Weather History for KTVL - March, 2014

Change the Weather History Date:

Thursday, March 6, 2014

  Actual Average Record
Temperature  
Mean Temperature 39 °F 34 °F  
Max Temperature 48 °F 47 °F 58 °F (1972)
Min Temperature 29 °F 21 °F -9 °F (1976)
Degree Days  
Heating Degree Days 26 31  
Month to date heating degree days 154 189  
Since 1 July heating degree days 4769 5426  
Cooling Degree Days 0 0  
Month to date cooling degree days 0 0  
Year to date cooling degree days 0 0  
Moisture  
Dew Point 29 °F    
Average Humidity 56    
Maximum Humidity 85    
Minimum Humidity 26    
Precipitation  
Precipitation 0.44 in - 1.41 in (1992)
Month to date precipitation 0.66  
Year to date precipitation 8.90  
Sea Level Pressure  
Sea Level Pressure 30.05 in    
Wind  
Wind Speed 8 mph (South)    
Max Wind Speed 26 mph    
Max Gust Speed 39 mph    
Visibility 8 miles    
Events Rain    
T = Trace of Precipitation, MM = Missing Value Source: NWS Daily Summary

Daily Weather History Graph

Daily Weather History Graph

Search for Another Location

Airport or City:

Trip Planner

Search our weather history database for the weather conditions in past years. The results will help you decide how hot, cold, wet, or windy it might be!

Date:

Astronomy

Mar. 06, 2014 Rise Set
Actual Time 6:24 AM PST 5:58 PM PST
Civil Twilight 5:58 AM PST 6:24 PM PST
Nautical Twilight 5:27 AM PST 6:55 PM PST
Astronomical Twilight 4:56 AM PST 7:26 PM PST
Moon 9:39 AM PST (3/6) No Moon Set
Length of Visible Light 12h 26m
Length of Day
11h 33m
Waxing Crescent, 33% of the Moon is Illuminated
Mar 6
Waxing Crescent
Mar 8
First Quarter
Mar 16
Full
Mar 23
Last Quarter
Mar 30
New

Hourly Weather History & Observations

Time (PST) Temp. Windchill Dew Point Humidity Pressure Visibility Wind Dir Wind Speed Gust Speed Precip Events Conditions
12:02 AM 45.0 °F 40.6 °F 37.9 °F 76% 30.06 in 7.0 mi SW 8.1 mph - 0.01 in Rain Light Rain
12:53 AM 41.0 °F 39.0 °F 36.0 °F 82% 30.01 in 5.0 mi Variable 3.5 mph - 0.07 in Rain Rain
1:00 AM 41.0 °F 38.0 °F 36.0 °F 82% 30.12 in 3.0 mi SW 4.6 mph - 0.03 in Rain Heavy Rain
1:02 AM 41.0 °F 39.0 °F 36.0 °F 82% 30.12 in 2.5 mi Variable 3.5 mph - 0.04 in Rain Rain
1:26 AM 39.0 °F 34.8 °F 34.0 °F 82% 30.08 in 5.0 mi SSE 5.8 mph - 0.13 in Rain Light Rain
1:40 AM 39.0 °F 35.7 °F 35.1 °F 86% 30.07 in 7.0 mi SW 4.6 mph - 0.14 in Rain Light Rain
1:51 AM 39.2 °F 35.0 °F 35.6 °F 87% 30.05 in 3.0 mi SSE 5.8 mph - 0.17 in Rain Rain
1:53 AM 39.0 °F 34.0 °F 35.1 °F 86% 29.97 in 3.0 mi SSE 6.9 mph - 0.17 in Rain Light Rain
2:28 AM 41.0 °F 36.4 °F 36.0 °F 82% 30.05 in 5.0 mi South 6.9 mph - 0.07 in Rain Light Rain
2:39 AM 42.1 °F 36.6 °F 36.0 °F 79% 30.07 in 5.0 mi South 9.2 mph - 0.08 in Rain Light Rain
2:53 AM 41.0 °F 36.4 °F 35.1 °F 79% 29.97 in 6.0 mi South 6.9 mph 17.3 mph 0.09 in Rain Light Rain
3:13 AM 41.0 °F 34.3 °F 36.0 °F 82% 30.05 in 8.0 mi South 11.5 mph - 0.02 in Rain Light Rain
3:53 AM 43.0 °F 38.2 °F 37.0 °F 80% 29.96 in 7.0 mi South 8.1 mph - 0.04 in Rain Light Rain
4:51 AM 42.8 °F 40.1 °F 37.4 °F 81% 30.08 in 5.0 mi Variable 4.6 mph - 0.06 in Rain Rain
4:53 AM 42.1 °F 38.4 °F 37.0 °F 82% 29.99 in 5.0 mi Variable 5.8 mph - 0.06 in Rain Rain
5:26 AM 39.9 °F 37.8 °F 34.0 °F 79% 30.08 in 10.0 mi Variable 3.5 mph - 0.02 in Rain Light Rain
5:53 AM 41.0 °F 36.4 °F 33.1 °F 73% 30.01 in 10.0 mi Variable 6.9 mph 20.7 mph 0.02 in Rain Light Rain
6:53 AM 39.0 °F 30.6 °F 30.0 °F 70% 30.03 in 10.0 mi South 15.0 mph - 0.00 in   Partly Cloudy
7:53 AM 41.0 °F 34.3 °F 30.9 °F 67% 30.03 in 10.0 mi South 11.5 mph - N/A   Mostly Cloudy
8:53 AM 43.0 °F 34.8 °F 21.0 °F 42% 30.02 in 10.0 mi South 18.4 mph 26.5 mph N/A   Mostly Cloudy
9:53 AM 46.0 °F 41.0 °F 17.1 °F 31% 30.02 in 10.0 mi South 10.4 mph 21.9 mph N/A   Clear
10:53 AM 46.0 °F 39.6 °F 14.0 °F 28% 30.02 in 10.0 mi South 15.0 mph 24.2 mph N/A   Clear
11:53 AM 46.9 °F - 21.9 °F 37% 30.01 in 10.0 mi SSW 17.3 mph 26.5 mph N/A   Clear
12:53 PM 46.9 °F - 21.9 °F 37% 30.00 in 10.0 mi SSW 23.0 mph 34.5 mph N/A   Clear
1:53 PM 46.9 °F - 24.1 °F 41% 30.01 in 10.0 mi SSW 13.8 mph 31.1 mph N/A   Clear
2:53 PM 46.0 °F 39.6 °F 24.1 °F 42% 29.99 in 10.0 mi SSW 15.0 mph 26.5 mph N/A   Partly Cloudy
3:53 PM 44.1 °F 37.7 °F 19.9 °F 38% 30.00 in 10.0 mi SSW 12.7 mph 23.0 mph N/A   Partly Cloudy
4:53 PM 41.0 °F 37.1 °F 24.1 °F 51% 30.02 in 10.0 mi SSW 5.8 mph 17.3 mph N/A   Clear
5:53 PM 39.9 °F 32.5 °F 19.9 °F 45% 30.06 in 10.0 mi SSE 12.7 mph 17.3 mph N/A   Scattered Clouds
6:53 PM 39.0 °F 32.3 °F 23.0 °F 53% 30.09 in 10.0 mi South 10.4 mph 18.4 mph N/A   Scattered Clouds
7:53 PM 36.0 °F 31.1 °F 25.0 °F 64% 30.12 in 10.0 mi SSE 5.8 mph - N/A   Scattered Clouds
8:53 PM 34.0 °F - 25.0 °F 70% 30.12 in 10.0 mi Calm Calm - N/A   Scattered Clouds
9:53 PM 32.0 °F - 25.0 °F 75% 30.14 in 10.0 mi Calm Calm - N/A   Clear
10:53 PM 30.0 °F 26.5 °F 24.1 °F 79% 30.14 in 10.0 mi South 3.5 mph - N/A   Clear
11:53 PM 28.9 °F - 24.1 °F 82% 30.15 in 10.0 mi Calm Calm - N/A   Clear